Portada
METAR-TAF:

METAR-TAF

Aeroports :

Koror, Babeldaob, Palau

latitud: 07-22N, longitud: 134-32E, altitud: 54 m

Observació

L'informe es va fer fa 13 minuts, a les 10:50 UTC
Vent 6 kt del Oest/Sud-Oest
Temperatura 27°C
Humitat 84%
Pressió 1009 hPa
Visibilitat: 22.5 km
Núvols disperses a una alçada de 1600 ft
Cel ennuvolat a una alçada de 11000 ft
Cel ennuvolat a una alçada de 29000 ft

METAR: PTRO 231050Z 24006KT 14SM SCT016 BKN110 BKN290 27/24 A2980

Hora: 20:03 (11:03 UTC)

Pronòstic

L'informe es va fer fa 5 hores i 13 minuts, a les 05:50 UTC
Pronòstic vàlid del 23 a les 06 UTC al 24 a les 06 UTC
Vent 11 kt del Oest
Visibilitat: 10 km
Escasses núvols a una alçada de 800 ft
Núvols disperses a una alçada de 1600 ft
Cel ennuvolat a una alçada de 11000 ft
xàfecs en les proximitats
Temporalment
l' 23 a les 08 UTC al 23 a les 12 UTC
Cel ennuvolat a una alçada de 1500 ft

TAF: PTRO 230550Z 2306/2406 26011KT P6SM VCSH FEW008 SCT016 BKN110 TEMPO 2308/2312 BKN015

Observacions i pronòstics meteorològics de més de 4000 aeroports (METAR i TAF).

Les estacions disponibles són els punts grocs i vermells al mapa.

Posi el ratolí al punt desitjat per veure el nom de l'estació.

Feu clic per veure les observacions i els pronòstics meteorològics.

Per canviar el mapa: feu clic els botons verds amb una creu de color negre per apropar; al botó verd amb un guió per allunyar la imatge; o en les fletxes verdes per a mapes adjacents.


METAR-TAF: